Regional Weather Roundup
Issued by NWS Little Rock, AR

Home | Current Version | Previous Version | Text Only | Print | Product List | Glossary On
Versions: 1 2 3 4 5 6 7 8 9 10 11 12 13 14 15 16 17 18 19 20 21 22 23 24 25 26 27 28 29 30 31 32 33 34 35 36 37 38 39 40 41 42 43 44 45 46 47 48 49 50
000
ASUS44 KLZK 160405
RWRLZK

WEATHER ROUNDUP FOR ARKANSAS
NATIONAL WEATHER SERVICE LITTLE ROCK AR
1100 PM CDT SUN SEP 15 2019

NOTE: "FAIR" INDICATES FEW OR NO CLOUDS BELOW 12,000 FEET WITH NO
SIGNIFICANT WEATHER AND/OR OBSTRUCTIONS TO VISIBILITY.

ARZ001-003-010-029-160500-
NORTHWEST ARKANSAS

CITY           SKY/WX    TMP DP  RH WIND       PRES   REMARKS
FAYETTEVILLE   CLEAR     70  70 100 S3        30.12S
FORT SMITH     CLEAR     79  75  87 NE3       30.06S
HARRISON       CLEAR     73  66  78 CALM      30.12S
BENTONVILLE    CLEAR     75  69  81 SE3       30.13S
ROGERS         CLEAR     75  70  84 CALM      30.13R
SILOAM SPGS    CLEAR     73  70  90 E3        30.12R
HIGHFILL       CLEAR     71  66  84 CALM      30.12R
$$

ARZ004-005-016-160500-
NORTH CENTRAL ARKANSAS

CITY           SKY/WX    TMP DP  RH WIND       PRES   REMARKS
BATESVILLE     CLEAR     75  68  78 CALM      30.09R
FLIPPIN        CLEAR     72  69  90 CALM      30.10R
MTN HOME       CLEAR     76  67  73 S3        30.10R
$$

ARZ040-041-160500-
WEST CENTRAL ARKANSAS

CITY           SKY/WX    TMP DP  RH WIND       PRES   REMARKS
MENA           CLEAR     75  68  78 CALM      30.12R
MOUNT IDA      CLEAR     75  69  81 CALM      30.07R
$$

ARZ009-017-025-026-028-160500-
NORTHEAST ARKANSAS

CITY           SKY/WX    TMP DP  RH WIND       PRES   REMARKS
JONESBORO      FAIR      75  68  78 CALM      30.07R
NEWPORT        FAIR      79  69  71 CALM      30.08R
WALNUT RIDGE   FAIR      76  69  79 S5        30.07R
BLYTHEVILLE    FAIR      78  66  66 CALM      30.07R
$$

ARZ022-023-033-042-044-160500-
CENTRAL ARKANSAS

CITY           SKY/WX    TMP DP  RH WIND       PRES   REMARKS
LITTLE ROCK    CLEAR     79  73  82 CALM      30.07R
N LITTLE ROCK    N/A     78  70  75 CALM      30.08S
BENTON         MOCLDY    75  72  88 CALM      30.07R
JACKSONVILLE   CLEAR     79  73  83 CALM      30.08R
CONWAY         PTCLDY    75  72  88 CALM      30.07R
SEARCY         FAIR      74  74 100 CALM      30.08R
HOT SPRINGS    CLEAR     79  70  74 CALM      30.08R
RUSSELLVILLE   CLEAR     74  68  81 CALM      30.07R
$$

ARZ036-160500-
EAST ARKANSAS

CITY           SKY/WX    TMP DP  RH WIND       PRES   REMARKS
WEST MEMPHIS   FAIR      77  72  84 CALM      30.06R
$$

ARZ050-053-066-070-073-160500-
SOUTHWEST ARKANSAS

CITY           SKY/WX    TMP DP  RH WIND       PRES   REMARKS
ARKADELPHIA    FAIR      74  72  93 CALM      30.06S
CAMDEN         FAIR      77  70  78 CALM      30.04S
TEXARKANA      CLEAR     81  67  62 CALM      30.05R
EL DORADO      FAIR      76  72  87 CALM      30.05R
DE QUEEN       CLEAR     75  69  81 E3        30.03S
$$

ARZ056-057-069-160500-
SOUTHEAST ARKANSAS

CITY           SKY/WX    TMP DP  RH WIND       PRES   REMARKS
PINE BLUFF     FAIR      76  70  82 CALM      30.06R
STUTTGART      FAIR      78  74  87 CALM      30.07R
MONTICELLO     FAIR      77  71  82 CALM      30.06R

$$





USA.gov is the U.S. government's official web portal to all federal, state and local government web resources and services.